When you browse on this site, cookies collect data to enhance your experience and personalize the content and advertising you see.
Visit our Privacy Policy to learn more. By continuing to use the site, you agree to this use of cookies and data.
  • In Germany
  • List of Countries
  • For 7 days
  • Water Temperature
  • Weather Map
  • Weather Widgets
  • user-avatar
    Login

    Hourly Weather Hrazdan

    Today, 19 September, Thursday

    Time Temperature Precipitation Wind Pressure Humidity
    00:00 +13°C° 0 mm 1 mps 615 mmHg 46%
    01:00 +13°C° 0 mm 1 mps 615 mmHg 46%
    02:00 +13°C° 0 mm 1 mps 615 mmHg 46%
    03:00 +12°C° 0 mm 1 mps 615 mmHg 47%
    04:00 +12°C° 0 mm 1 mps 615 mmHg 48%
    05:00 +12°C° 0 mm 1 mps 615 mmHg 48%
    06:00 +12°C° 0 mm 1 mps 615 mmHg 49%
    07:00 +15°C° 0 mm 1 mps 615 mmHg 45%
    08:00 +18°C° 0 mm 1 mps 616 mmHg 41%
    09:00 +21°C° 0 mm 1 mps 617 mmHg 37%
    10:00 +22°C° 0 mm 1 mps 617 mmHg 35%
    11:00 +23°C° 0 mm 2 mps 618 mmHg 32%
    12:00 +24°C° 0 mm 2 mps 618 mmHg 29%
    13:00 +24°C° 0 mm 2 mps 618 mmHg 29%
    14:00 +24°C° 0 mm 2 mps 617 mmHg 28%
    15:00 +24°C° 0 mm 2 mps 617 mmHg 27%
    16:00 +21°C° 0 mm 2 mps 616 mmHg 33%
    17:00 +20°C° 0 mm 1 mps 616 mmHg 40%
    18:00 +18°C° 0 mm 1 mps 615 mmHg 46%
    19:00 +16°C° 0 mm 1 mps 615 mmHg 50%
    20:00 +15°C° 0 mm 1 mps 615 mmHg 53%
    21:00 +14°C° 0 mm 2 mps 615 mmHg 57%
    22:00 +14°C° 0 mm 2 mps 615 mmHg 57%
    23:00 +14°C° 0 mm 2 mps 615 mmHg 57%

    Tomorrow, 20 September, Friday

    Time Temperature Precipitation Wind Pressure Humidity
    00:00 +13°C° 0 mm 2 mps 615 mmHg 58%
    01:00 +13°C° 0 mm 2 mps 614 mmHg 58%
    02:00 +13°C° 0 mm 2 mps 614 mmHg 59%
    03:00 +12°C° 0 mm 1 mps 614 mmHg 59%
    04:00 +12°C° 0 mm 1 mps 613 mmHg 58%
    05:00 +12°C° 0 mm 1 mps 613 mmHg 58%
    06:00 +12°C° 0 mm 1 mps 613 mmHg 58%
    07:00 +14°C° 0 mm 1 mps 614 mmHg 51%
    08:00 +18°C° 0 mm 1 mps 615 mmHg 45%
    09:00 +20°C° 0 mm 1 mps 616 mmHg 39%
    10:00 +20°C° 0 mm 2 mps 616 mmHg 35%
    11:00 +22°C° 0 mm 3 mps 616 mmHg 31%
    12:00 +23°C° 0 mm 4 mps 616 mmHg 27%
    13:00 +23°C° 0 mm 5 mps 615 mmHg 27%
    14:00 +23°C° 0 mm 5 mps 615 mmHg 27%
    15:00 +23°C° 0 mm 5 mps 614 mmHg 27%
    16:00 +21°C° 0 mm 4 mps 613 mmHg 32%
    17:00 +19°C° 0 mm 2 mps 612 mmHg 37%
    18:00 +18°C° 0 mm 1 mps 611 mmHg 42%
    19:00 +18°C° 0 mm 1 mps 611 mmHg 43%
    20:00 +16°C° 0 mm 1 mps 611 mmHg 45%
    21:00 +16°C° 0 mm 1 mps 611 mmHg 46%
    22:00 +16°C° 0 mm 1 mps 611 mmHg 47%
    23:00 +15°C° 0 mm 1 mps 611 mmHg 47%

    Day after tomorrow, 21 September, Saturday

    Time Temperature Precipitation Wind Pressure Humidity
    00:00 +15°C° 0 mm 1 mps 611 mmHg 48%
    01:00 +14°C° 0 mm 1 mps 610 mmHg 51%
    02:00 +14°C° 0 mm 1 mps 610 mmHg 55%
    03:00 +13°C° 0 mm 1 mps 609 mmHg 58%
    04:00 +13°C° 0 mm 1 mps 609 mmHg 61%
    05:00 +12°C° 0 mm 1 mps 609 mmHg 65%
    06:00 +12°C° 0 mm 2 mps 608 mmHg 68%
    07:00 +14°C° 0 mm 2 mps 609 mmHg 60%
    08:00 +16°C° 0 mm 2 mps 610 mmHg 51%
    09:00 +18°C° 0 mm 3 mps 611 mmHg 43%
    10:00 +19°C° 0 mm 4 mps 611 mmHg 39%
    11:00 +20°C° 0 mm 5 mps 611 mmHg 35%
    12:00 +21°C° 0 mm 6 mps 611 mmHg 30%
    13:00 +21°C° 0.1 mm 6 mps 611 mmHg 33%
    14:00 +20°C° 0.1 mm 6 mps 611 mmHg 36%
    15:00 +20°C° 0.1 mm 6 mps 611 mmHg 39%
    16:00 +16°C° 0.2 mm 5 mps 610 mmHg 51%
    17:00 +14°C° 0.2 mm 4 mps 610 mmHg 63%
    18:00 +11°C° 0.2 mm 3 mps 609 mmHg 76%
    19:00 +10°C° 0 mm 3 mps 610 mmHg 76%
    20:00 +10°C° 0 mm 2 mps 611 mmHg 77%
    21:00 +9°C° 0 mm 2 mps 611 mmHg 77%
    22:00 +8°C° 0 mm 2 mps 612 mmHg 77%
    23:00 +7°C° 0 mm 2 mps 612 mmHg 76%

    22 September, Sunday

    Time Temperature Precipitation Wind Pressure Humidity
    00:00 +6°C° 0 mm 2 mps 612 mmHg 76%
    01:00 +5°C° 0 mm 2 mps 612 mmHg 75%
    02:00 +5°C° 0 mm 2 mps 612 mmHg 73%
    03:00 +5°C° 0 mm 1 mps 612 mmHg 71%
    04:00 +5°C° 0 mm 1 mps 612 mmHg 69%
    05:00 +5°C° 0 mm 1 mps 612 mmHg 67%
    06:00 +4°C° 0 mm 1 mps 612 mmHg 65%
    07:00 +7°C° 0 mm 1 mps 613 mmHg 58%
    08:00 +9°C° 0 mm 1 mps 614 mmHg 50%
    09:00 +11°C° 0 mm 1 mps 616 mmHg 43%
    10:00 +12°C° 0 mm 1 mps 616 mmHg 40%
    11:00 +14°C° 0 mm 2 mps 616 mmHg 38%
    12:00 +15°C° 0 mm 2 mps 616 mmHg 35%
    13:00 +15°C° 0 mm 2 mps 616 mmHg 36%
    14:00 +15°C° 0 mm 2 mps 615 mmHg 38%
    15:00 +15°C° 0 mm 2 mps 615 mmHg 39%
    16:00 +13°C° 0 mm 2 mps 614 mmHg 49%
    17:00 +10°C° 0 mm 2 mps 613 mmHg 59%
    18:00 +8°C° 0 mm 2 mps 612 mmHg 68%
    19:00 +8°C° 0 mm 2 mps 613 mmHg 72%
    20:00 +7°C° 0 mm 2 mps 613 mmHg 76%
    21:00 +6°C° 0 mm 2 mps 613 mmHg 79%
    22:00 +6°C° 0 mm 2 mps 612 mmHg 79%
    23:00 +6°C° 0 mm 2 mps 612 mmHg 78%

    23 September, Monday

    Time Temperature Precipitation Wind Pressure Humidity
    00:00 +5°C° 0 mm 2 mps 612 mmHg 77%
    01:00 +5°C° 0 mm 2 mps 612 mmHg 76%
    02:00 +6°C° 0 mm 1 mps 612 mmHg 76%
    03:00 +6°C° 0 mm 1 mps 612 mmHg 75%
    04:00 +6°C° 0 mm 1 mps 612 mmHg 75%
    05:00 +6°C° 0 mm 1 mps 612 mmHg 74%
    06:00 +6°C° 0 mm 1 mps 612 mmHg 74%
    07:00 +8°C° 0 mm 1 mps 613 mmHg 67%
    08:00 +11°C° 0 mm 1 mps 614 mmHg 59%
    09:00 +13°C° 0 mm 1 mps 615 mmHg 52%
    10:00 +15°C° 0 mm 1 mps 615 mmHg 48%
    11:00 +16°C° 0 mm 2 mps 616 mmHg 44%
    12:00 +17°C° 0 mm 2 mps 616 mmHg 41%
    13:00 +17°C° 0 mm 2 mps 615 mmHg 40%
    14:00 +18°C° 0 mm 2 mps 615 mmHg 39%
    15:00 +18°C° 0 mm 2 mps 615 mmHg 38%
    16:00 +16°C° 0 mm 2 mps 614 mmHg 48%
    17:00 +13°C° 0 mm 2 mps 613 mmHg 59%
    18:00 +10°C° 0 mm 2 mps 612 mmHg 69%
    19:00 +9°C° 0 mm 2 mps 612 mmHg 71%
    20:00 +9°C° 0 mm 2 mps 613 mmHg 74%
    21:00 +8°C° 0 mm 2 mps 613 mmHg 77%
    22:00 +7°C° 0 mm 2 mps 613 mmHg 77%
    23:00 +7°C° 0 mm 2 mps 613 mmHg 78%

    24 September, Tuesday

    Time Temperature Precipitation Wind Pressure Humidity
    00:00 +7°C° 0 mm 2 mps 613 mmHg 78%
    01:00 +6°C° 0 mm 2 mps 613 mmHg 80%
    02:00 +6°C° 0 mm 2 mps 613 mmHg 81%
    03:00 +6°C° 0 mm 2 mps 612 mmHg 83%
    04:00 +6°C° 0 mm 2 mps 613 mmHg 83%
    05:00 +6°C° 0 mm 2 mps 613 mmHg 84%
    06:00 +6°C° 0 mm 2 mps 613 mmHg 84%
    07:00 +8°C° 0 mm 2 mps 613 mmHg 77%
    08:00 +10°C° 0 mm 2 mps 614 mmHg 70%
    09:00 +13°C° 0 mm 2 mps 615 mmHg 63%
    10:00 +14°C° 0 mm 2 mps 615 mmHg 57%
    11:00 +16°C° 0 mm 2 mps 616 mmHg 51%
    12:00 +17°C° 0 mm 2 mps 616 mmHg 45%
    13:00 +18°C° 0 mm 2 mps 616 mmHg 43%
    14:00 +18°C° 0 mm 3 mps 615 mmHg 40%
    15:00 +18°C° 0 mm 3 mps 615 mmHg 38%
    16:00 +16°C° 0 mm 2 mps 614 mmHg 47%
    17:00 +14°C° 0 mm 1 mps 613 mmHg 56%
    18:00 +12°C° 0 mm 1 mps 612 mmHg 65%
    19:00 +12°C° 0 mm 1 mps 612 mmHg 62%
    20:00 +12°C° 0 mm 1 mps 612 mmHg 59%
    21:00 +11°C° 0 mm 1 mps 612 mmHg 56%
    22:00 +11°C° 0 mm 1 mps 612 mmHg 54%
    23:00 +11°C° 0 mm 1 mps 612 mmHg 52%
    Show more